Skip Page Navigation
NASA JPL Caltech
NASA Logo - Jet Propulsion Laboratory + View the NASA Portal
+ Near-Earth Object (NEO) Program
Search JPL
JPL Home Earth Solar System Stars & Galaxies Technology
JPL Solar System Dynamics
BODIES ORBITS EPHEMERIDES TOOLS PHYSICAL DATA DISCOVERY FAQ SITE MAP
JPL Small-Body Database Browser
Search: [ help ]  
44856 (1999 UH6)
Classification: Main-belt Asteroid          SPK-ID: 2044856
Ephemeris | Orbit Diagram | Orbital Elements | Physical Parameters | Discovery Circumstances ]

[ show orbit diagram ]
Orbital Elements at Epoch 2457000.5 (2014-Dec-09.0) TDB
Reference: JPL 4 (heliocentric ecliptic J2000)
 Element Value Uncertainty (1-sigma)   Units 
e .199766733388024 6.137e-08  
a 2.378766372974664 1.8928e-08 AU
q 1.903567985152238 1.4432e-07 AU
i 2.452893515876443 6.4221e-06 deg
node 217.4506957220393 0.00015226 deg
peri 136.00962303725 0.00015328 deg
M 72.61434492456603 1.7416e-05 deg
tp 2456730.200006204884
(2014-Mar-13.70000621)
6.3288e-05 JED
period 1340.065766169595
3.67
1.5994e-05
4.379e-08
d
yr
n .2686435315999555 3.2063e-09 deg/d
Q 2.853964760797091 2.2709e-08 AU
  Orbit Determination Parameters
   # obs. used (total)      428  
   data-arc span      6609 days (18.09 yr)  
   first obs. used      1995-06-04  
   last obs. used      2013-07-08  
   planetary ephem.      DE431  
   SB-pert. ephem.      SB431-BIG16  
   condition code      0  
   fit RMS      .55355  
   data source      ORB  
   producer      Otto Matic  
   solution date      2014-Jun-10 06:23:15  

Additional Information
 Earth MOID = .899705 AU 
 T_jup = 3.511 
[ show covariance matrix ]

Ephemeris | Orbit Diagram | Orbital Elements | Physical Parameters | Discovery Circumstances ]

Physical Parameter Table
Parameter Symbol Value Units Sigma Reference Notes
absolute magnitude H 15.8 mag n/a MPO266166  

44856 (1999 UH6)          Discovered 1999-Oct-28 by BAO Schmidt CCD Asteroid Program at Xinglong (327)
Reference: 20020822/Numbers.arcLast Updated: 2004-04-19

Alternate Designations
 1999 UH6 = 1997 EL59 
Ephemeris | Orbit Diagram | Orbital Elements | Physical Parameters | Discovery Circumstances ]
ABOUT SSD CREDITS/AWARDS PRIVACY/COPYRIGHT GLOSSARY LINKS
FirstGov 2014-Sep-02 16:49 UT
(server date/time)  
NASA Home Page
Site Manager:   Donald K. Yeomans
Webmaster  Alan B. Chamberlin